Willmar, MN

9:41 PM CDT on March 24, 2017 (GMT -0500)
Willmar

Weather History for KBDH - January, 2013

Change the Weather History Date:

Friday, January 18, 2013

  Actual Average (KBBB) Record (KBBB)
Temperature  
Mean Temperature 25 °F -  
Max Temperature 35 °F 21 °F 46 °F (1981)
Min Temperature 15 °F 0 °F -32 °F (1970)
Degree Days  
Heating Degree Days 40    
Moisture  
Dew Point 21 °F    
Average Humidity 80    
Maximum Humidity 93    
Minimum Humidity 68    
Precipitation  
Precipitation 0.00 in - - ()
Sea Level Pressure  
Sea Level Pressure 29.85 in    
Wind  
Wind Speed 11 mph (SSW)    
Max Wind Speed 20 mph    
Max Gust Speed -    
Visibility 10 miles    
Events      
Averages and records for this station are not official NWS values.
T = Trace of Precipitation, MM = Missing Value Source: NWS Daily Summary

Daily Weather History Graph

Daily Weather History Graph

Search for Another Location

Airport or City:

Trip Planner

Search our weather history database for the weather conditions in past years. The results will help you decide how hot, cold, wet, or windy it might be!

Date:

Astronomy

Jan. 18, 2013 Rise Set
Actual Time 7:53 AM CST 5:09 PM CST
Civil Twilight 7:20 AM CST 5:41 PM CST
Nautical Twilight 6:44 AM CST 6:17 PM CST
Astronomical Twilight 6:09 AM CST 6:52 PM CST
Moon 11:09 AM CST (1/18) 12:21 AM CST (1/18)
Length of Visible Light 10h 20m
Length of Day
9h 15m
Waxing Crescent, 47% of the Moon is Illuminated
Jan 18
Waxing Crescent
Jan 18
First Quarter
Jan 26
Full
Feb 3
Last Quarter
Feb 10
New

Hourly Weather History & Observations

Time (CST) Temp. Windchill Dew Point Humidity Pressure Visibility Wind Dir Wind Speed Gust Speed Precip Events Conditions
12:15 AM 15.8 °F 5.1 °F 8.6 °F 73% 30.20 in 10.0 mi East 8.1 mph - N/A   Overcast
12:35 AM 15.8 °F 2.1 °F 8.6 °F 73% 30.17 in 10.0 mi ESE 12.7 mph - N/A   Overcast
12:55 AM 15.8 °F 2.1 °F 8.6 °F 73% 30.15 in 10.0 mi ESE 12.7 mph - N/A   Overcast
1:15 AM 15.8 °F 1.4 °F 8.6 °F 73% 30.12 in 10.0 mi SE 13.8 mph - N/A   Overcast
1:35 AM 17.6 °F 3.2 °F 8.6 °F 68% 30.10 in 10.0 mi SE 15.0 mph - N/A   Overcast
1:55 AM 17.6 °F 2.7 °F 8.6 °F 68% 30.09 in 10.0 mi SE 16.1 mph - N/A   Mostly Cloudy
2:15 AM 17.6 °F 1.3 °F 10.4 °F 73% 30.06 in 10.0 mi SE 19.6 mph - N/A   Mostly Cloudy
2:35 AM 19.4 °F 4.1 °F 12.2 °F 74% 30.06 in 10.0 mi SE 18.4 mph - N/A   Mostly Cloudy
2:55 AM 19.4 °F 5.5 °F 12.2 °F 74% 30.06 in 10.0 mi ESE 15.0 mph - N/A   Scattered Clouds
3:15 AM 19.4 °F 6.0 °F 14.0 °F 80% 30.05 in 10.0 mi ESE 13.8 mph - N/A   Clear
3:35 AM 19.4 °F 5.5 °F 15.8 °F 86% 30.03 in 10.0 mi ESE 15.0 mph - N/A   Clear
3:55 AM 19.4 °F 5.0 °F 15.8 °F 86% 30.02 in 10.0 mi ESE 16.1 mph - N/A   Clear
4:15 AM 21.2 °F 7.3 °F 15.8 °F 80% 29.99 in 10.0 mi SE 16.1 mph - N/A   Clear
4:35 AM 19.4 °F 6.0 °F 15.8 °F 86% 29.97 in 10.0 mi SE 13.8 mph - N/A   Clear
4:55 AM 21.2 °F 6.4 °F 15.8 °F 80% 29.95 in 10.0 mi SE 18.4 mph - N/A   Clear
5:15 AM 21.2 °F 7.8 °F 15.8 °F 80% 29.92 in 10.0 mi SE 15.0 mph - N/A   Clear
5:35 AM 21.2 °F 8.3 °F 17.6 °F 86% 29.92 in 10.0 mi SE 13.8 mph - N/A   Clear
5:55 AM 21.2 °F 9.5 °F 17.6 °F 86% 29.90 in 10.0 mi SE 11.5 mph - N/A   Clear
6:15 AM 21.2 °F 10.1 °F 17.6 °F 86% 29.89 in 10.0 mi SE 10.4 mph - N/A   Clear
6:35 AM 23.0 °F 12.4 °F 19.4 °F 86% 29.87 in 10.0 mi SSE 10.4 mph - N/A   Clear
6:55 AM 23.0 °F 13.1 °F 19.4 °F 86% 29.86 in 10.0 mi SSE 9.2 mph - N/A   Clear
7:15 AM 24.8 °F 14.0 °F 21.2 °F 86% 29.83 in 7.0 mi SSE 11.5 mph - N/A   Clear
7:35 AM 24.8 °F 16.9 °F 21.2 °F 86% 29.83 in 7.0 mi SSE 6.9 mph - N/A   Clear
7:55 AM 24.8 °F 17.9 °F 21.2 °F 86% 29.82 in 7.0 mi SSE 5.8 mph - N/A   Clear
8:15 AM 23.0 °F 14.7 °F 19.4 °F 86% 29.81 in 5.0 mi SSE 6.9 mph - N/A   Clear
8:35 AM 21.2 °F 16.4 °F 19.4 °F 93% 29.81 in 5.0 mi SSE 3.5 mph - N/A   Clear
8:56 AM 21.2 °F 14.9 °F 19.4 °F 93% 29.81 in 5.0 mi SE 4.6 mph - N/A   Clear
9:15 AM 23.0 °F 18.4 °F 19.4 °F 86% 29.81 in 5.0 mi SSE 3.5 mph - N/A   Clear
9:35 AM 24.8 °F - 19.4 °F 80% 29.80 in 7.0 mi Calm Calm - N/A   Clear
10:15 AM 28.4 °F - 21.2 °F 74% 29.80 in 10.0 mi Calm Calm - N/A   Clear
10:35 AM 30.2 °F 23.4 °F 21.2 °F 69% 29.80 in 10.0 mi SW 6.9 mph - N/A   Clear
10:56 AM 30.2 °F 20.8 °F 23.0 °F 75% 29.79 in 10.0 mi SW 11.5 mph - N/A   Clear
11:15 AM 30.2 °F 21.3 °F 24.8 °F 80% 29.78 in 10.0 mi SW 10.4 mph - N/A   Clear
11:35 AM 32.0 °F 22.5 °F 24.8 °F 75% 29.76 in 10.0 mi WSW 12.7 mph - N/A   Clear
11:56 AM 32.0 °F 23.0 °F 24.8 °F 75% 29.76 in 10.0 mi WSW 11.5 mph - N/A   Clear
12:15 PM 33.8 °F 24.8 °F 24.8 °F 70% 29.75 in 10.0 mi WSW 12.7 mph - N/A   Clear
12:35 PM 33.8 °F 26.4 °F 24.8 °F 70% 29.73 in 10.0 mi WSW 9.2 mph - N/A   Clear
12:56 PM 33.8 °F 25.8 °F 24.8 °F 70% 29.73 in 10.0 mi WSW 10.4 mph - N/A   Clear
1:15 PM 33.8 °F 25.3 °F 26.6 °F 75% 29.73 in 10.0 mi WSW 11.5 mph - N/A   Clear
1:35 PM 35.6 °F 28.6 °F 26.6 °F 70% 29.74 in 10.0 mi West 9.2 mph - N/A   Clear
1:56 PM 35.6 °F 28.0 °F 26.6 °F 70% 29.73 in 10.0 mi West 10.4 mph - N/A   Clear
2:15 PM 35.6 °F 28.0 °F 26.6 °F 70% 29.74 in 10.0 mi West 10.4 mph - N/A   Clear
2:35 PM 35.6 °F 27.1 °F 26.6 °F 70% 29.74 in 10.0 mi West 12.7 mph - N/A   Clear
2:56 PM 35.6 °F 27.5 °F 26.6 °F 70% 29.74 in 10.0 mi West 11.5 mph - N/A   Clear
3:15 PM 35.6 °F 28.0 °F 26.6 °F 70% 29.75 in 10.0 mi West 10.4 mph - N/A   Clear
3:35 PM 35.6 °F 28.0 °F 26.6 °F 70% 29.75 in 10.0 mi West 10.4 mph - N/A   Clear
3:56 PM 35.6 °F 27.5 °F 26.6 °F 70% 29.76 in 10.0 mi West 11.5 mph - N/A   Clear
4:15 PM 35.6 °F 27.5 °F 26.6 °F 70% 29.76 in 10.0 mi West 11.5 mph - N/A   Clear
4:35 PM 33.8 °F 25.8 °F 26.6 °F 75% 29.76 in 10.0 mi West 10.4 mph - N/A   Clear
4:56 PM 33.8 °F 25.8 °F 26.6 °F 75% 29.77 in 10.0 mi West 10.4 mph - N/A   Clear
5:15 PM 32.0 °F 24.8 °F 26.6 °F 80% 29.78 in 10.0 mi West 8.1 mph - N/A   Clear
5:35 PM 30.2 °F 21.9 °F 26.6 °F 86% 29.78 in 10.0 mi West 9.2 mph - N/A   Clear
5:56 PM 30.2 °F 23.4 °F 24.8 °F 80% 29.79 in 10.0 mi West 6.9 mph - N/A   Clear
6:15 PM 28.4 °F 23.3 °F 24.8 °F 86% 29.79 in 10.0 mi West 4.6 mph - N/A   Clear
6:35 PM 30.2 °F 23.4 °F 24.8 °F 80% 29.79 in 10.0 mi West 6.9 mph - N/A   Clear
6:55 PM 30.2 °F 22.6 °F 26.6 °F 86% 29.79 in 10.0 mi West 8.1 mph - N/A   Clear
7:15 PM 28.4 °F 20.4 °F 24.8 °F 86% 29.80 in 10.0 mi West 8.1 mph - N/A   Clear
7:36 PM 26.6 °F 18.2 °F 23.0 °F 86% 29.80 in 10.0 mi West 8.1 mph - N/A   Clear
7:55 PM 28.4 °F 21.2 °F 24.8 °F 86% 29.80 in 10.0 mi West 6.9 mph - N/A   Clear
8:15 PM 26.6 °F 22.6 °F 21.2 °F 80% 29.80 in 10.0 mi SW 3.5 mph - N/A   Clear
8:36 PM 28.4 °F 20.4 °F 24.8 °F 86% 29.79 in 10.0 mi SW 8.1 mph - N/A   Clear
8:55 PM 28.4 °F 21.2 °F 24.8 °F 86% 29.78 in 10.0 mi SSW 6.9 mph - N/A   Clear
9:15 PM 28.4 °F 21.2 °F 24.8 °F 86% 29.78 in 10.0 mi SW 6.9 mph - N/A   Clear
9:36 PM 26.6 °F 19.1 °F 21.2 °F 80% 29.77 in 10.0 mi WSW 6.9 mph - N/A   Clear
9:55 PM 26.6 °F 21.2 °F 23.0 °F 86% 29.78 in 10.0 mi West 4.6 mph - N/A   Clear
10:15 PM 24.8 °F 20.5 °F 21.2 °F 86% 29.78 in 10.0 mi West 3.5 mph - N/A   Clear
10:36 PM 26.6 °F 21.2 °F 24.8 °F 93% 29.77 in 10.0 mi SW 4.6 mph - N/A   Clear
10:55 PM 26.6 °F 21.2 °F 23.0 °F 86% 29.78 in 10.0 mi SW 4.6 mph - N/A   Clear
11:15 PM 24.8 °F 19.1 °F 21.2 °F 86% 29.77 in 10.0 mi SW 4.6 mph - N/A   Clear
11:36 PM 23.0 °F 18.4 °F 21.2 °F 93% 29.76 in 10.0 mi SW 3.5 mph - N/A   Clear
11:55 PM 24.8 °F - 21.2 °F 86% 29.76 in 10.0 mi Calm Calm - N/A   Clear